Location: Strawberry
(45.6646°N, 111.9596°W)
Time: 06:12:41
(UTC+00:00)

SR - Visible Passes

Search period start: 21 February 2024 00:00
Search period end: 02 March 2024 00:00
Orbit: 573 x 868 km, 66.7° (Epoch: 20 February)

Date Brightness Start Highest point End Pass type
(mag) Time Alt. Az. Time Alt. Az. Time Alt. Az.
21 Feb ? 02:04:47 10° WNW 02:08:31 17° NNW 02:12:09 10° N visible
23 Feb ? 02:04:43 10° NW 02:07:17 13° NNW 02:09:49 10° N visible
25 Feb ? 02:05:52 10° NNW 02:06:08 10° NNW 02:06:25 10° NNW visible
28 Feb ? 04:38:30 10° N 04:38:59 11° N 04:38:59 11° N visible
29 Feb ? 03:48:03 10° NNE 03:48:32 10° NNE 03:48:32 10° NNE visible
29 Feb ? 05:27:45 10° NNW 05:27:47 10° NNW 05:27:47 10° NNW visible
01 Mar ? 04:36:16 10° N 04:37:20 14° N 04:37:20 14° N visible
